Year,Month,Day,Hour,Minute,Value (Times are PST for temperature in C)
2018,07,29,00,00,14.10
2018,07,29,00,01,14.10
2018,07,29,00,02,14.10
2018,07,29,00,03,14.00
2018,07,29,00,04,14.00
2018,07,29,00,05,14.00
2018,07,29,00,06,14.00
2018,07,29,00,07,14.00
2018,07,29,00,08,14.00
2018,07,29,00,09,13.90
2018,07,29,00,10,13.90
2018,07,29,00,11,13.90
2018,07,29,00,12,13.90
2018,07,29,00,13,13.90
2018,07,29,00,14,13.90
2018,07,29,00,15,13.80
2018,07,29,00,16,13.80
2018,07,29,00,17,13.80
2018,07,29,00,18,13.80
2018,07,29,00,19,13.80
2018,07,29,00,20,13.80
2018,07,29,00,21,13.80
2018,07,29,00,22,13.80
2018,07,29,00,23,13.80
2018,07,29,00,24,13.70
2018,07,29,00,25,13.70
2018,07,29,00,26,13.70
2018,07,29,00,27,13.80
2018,07,29,00,28,13.80
2018,07,29,00,29,13.80
2018,07,29,00,30,13.80
2018,07,29,00,31,13.80
2018,07,29,00,32,13.80
2018,07,29,00,33,13.80
2018,07,29,00,34,13.80
2018,07,29,00,35,13.80
2018,07,29,00,36,13.80
2018,07,29,00,37,13.80
2018,07,29,00,38,13.80
2018,07,29,00,39,13.80
2018,07,29,00,40,13.80
2018,07,29,00,41,13.70
2018,07,29,00,42,13.70
2018,07,29,00,43,13.70
2018,07,29,00,44,13.70
2018,07,29,00,45,13.70
2018,07,29,00,46,13.70
2018,07,29,00,47,13.70
2018,07,29,00,48,13.60
2018,07,29,00,49,13.60
2018,07,29,00,50,13.60
2018,07,29,00,51,13.60
2018,07,29,00,52,13.60
2018,07,29,00,53,13.60
2018,07,29,00,54,13.60
2018,07,29,00,55,13.50
2018,07,29,00,56,13.50
2018,07,29,00,57,13.50
2018,07,29,00,58,13.40
2018,07,29,00,59,13.40
2018,07,29,01,00,13.40
2018,07,29,01,01,13.40
2018,07,29,01,02,13.40
2018,07,29,01,03,13.40
2018,07,29,01,04,13.30
2018,07,29,01,05,13.30
2018,07,29,01,06,13.30
2018,07,29,01,07,13.30
2018,07,29,01,08,13.30
2018,07,29,01,09,13.30
2018,07,29,01,10,13.30
2018,07,29,01,11,13.30
2018,07,29,01,12,13.20
2018,07,29,01,13,13.20
2018,07,29,01,14,13.20
2018,07,29,01,15,13.20
2018,07,29,01,16,13.20
2018,07,29,01,17,13.20
2018,07,29,01,18,13.20
2018,07,29,01,19,13.20
2018,07,29,01,20,13.20
2018,07,29,01,21,13.20
2018,07,29,01,22,13.20
2018,07,29,01,23,13.20
2018,07,29,01,24,13.10
2018,07,29,01,25,13.10
2018,07,29,01,26,13.10
2018,07,29,01,27,13.10
2018,07,29,01,28,13.10
2018,07,29,01,29,13.10
2018,07,29,01,30,13.10
2018,07,29,01,31,13.10
2018,07,29,01,32,13.00
2018,07,29,01,33,13.00
2018,07,29,01,34,13.00
2018,07,29,01,35,13.00
2018,07,29,01,36,13.00
2018,07,29,01,37,13.00
2018,07,29,01,38,12.90
2018,07,29,01,39,12.90
2018,07,29,01,40,12.90
2018,07,29,01,41,12.90
2018,07,29,01,42,12.90
2018,07,29,01,43,12.90
2018,07,29,01,44,12.90
2018,07,29,01,45,12.90
2018,07,29,01,46,12.90
2018,07,29,01,47,12.90
2018,07,29,01,48,12.90
2018,07,29,01,49,12.90
2018,07,29,01,50,12.90
2018,07,29,01,51,12.90
2018,07,29,01,52,12.90
2018,07,29,01,53,12.90
2018,07,29,01,54,12.90
2018,07,29,01,55,12.90
2018,07,29,01,56,12.80
2018,07,29,01,57,12.80
2018,07,29,01,58,12.80
2018,07,29,01,59,12.80
2018,07,29,02,00,12.80
2018,07,29,02,01,12.80
2018,07,29,02,02,12.80
2018,07,29,02,03,12.70
2018,07,29,02,04,12.70
2018,07,29,02,05,12.70
2018,07,29,02,06,12.70
2018,07,29,02,07,12.70
2018,07,29,02,08,12.70
2018,07,29,02,09,12.70
2018,07,29,02,10,12.60
2018,07,29,02,11,12.60
2018,07,29,02,12,12.60
2018,07,29,02,13,12.60
2018,07,29,02,14,12.60
2018,07,29,02,15,12.60
2018,07,29,02,16,12.60
2018,07,29,02,17,12.60
2018,07,29,02,18,12.50
2018,07,29,02,19,12.50
2018,07,29,02,20,12.50
2018,07,29,02,21,12.50
2018,07,29,02,22,12.50
2018,07,29,02,23,12.50
2018,07,29,02,24,12.50
2018,07,29,02,25,12.50
2018,07,29,02,26,12.50
2018,07,29,02,27,12.40
2018,07,29,02,28,12.40
2018,07,29,02,29,12.40
2018,07,29,02,30,12.40
2018,07,29,02,31,12.40
2018,07,29,02,32,12.40
2018,07,29,02,33,12.40
2018,07,29,02,34,12.40
2018,07,29,02,35,12.40
2018,07,29,02,36,12.40
2018,07,29,02,37,12.40
2018,07,29,02,38,12.40
2018,07,29,02,39,12.40
2018,07,29,02,40,12.40
2018,07,29,02,41,12.40
2018,07,29,02,42,12.30
2018,07,29,02,43,12.30
2018,07,29,02,44,12.30
2018,07,29,02,45,12.30
2018,07,29,02,46,12.30
2018,07,29,02,47,12.20
2018,07,29,02,48,12.20
2018,07,29,02,49,12.20
2018,07,29,02,50,12.20
2018,07,29,02,51,12.20
2018,07,29,02,52,12.20
2018,07,29,02,53,12.20
2018,07,29,02,54,12.20
2018,07,29,02,55,12.20
2018,07,29,02,56,12.20
2018,07,29,02,57,12.20
2018,07,29,02,58,12.20
2018,07,29,02,59,12.20
2018,07,29,03,00,12.20
2018,07,29,03,01,12.20
2018,07,29,03,02,12.20
2018,07,29,03,03,12.20
2018,07,29,03,04,12.20
2018,07,29,03,05,12.20
2018,07,29,03,06,12.20
2018,07,29,03,07,12.20
2018,07,29,03,08,12.20
2018,07,29,03,09,12.20
2018,07,29,03,10,12.20
2018,07,29,03,11,12.20
2018,07,29,03,12,12.20
2018,07,29,03,13,12.20
2018,07,29,03,14,12.10
2018,07,29,03,15,12.10
2018,07,29,03,16,12.10
2018,07,29,03,17,12.10
2018,07,29,03,18,12.10
2018,07,29,03,19,12.10
2018,07,29,03,20,12.10
2018,07,29,03,21,12.10
2018,07,29,03,22,12.10
2018,07,29,03,23,12.10
2018,07,29,03,24,12.10
2018,07,29,03,25,12.10
2018,07,29,03,26,12.10
2018,07,29,03,27,12.10
2018,07,29,03,28,12.10
2018,07,29,03,29,12.10
2018,07,29,03,30,12.00
2018,07,29,03,31,12.00
2018,07,29,03,32,12.00
2018,07,29,03,33,12.00
2018,07,29,03,34,12.00
2018,07,29,03,35,12.00
2018,07,29,03,36,12.00
2018,07,29,03,37,12.00
2018,07,29,03,38,11.90
2018,07,29,03,39,11.90
2018,07,29,03,40,11.90
2018,07,29,03,41,11.90
2018,07,29,03,42,11.90
2018,07,29,03,43,11.90
2018,07,29,03,44,11.90
2018,07,29,03,45,11.90
2018,07,29,03,46,11.90
2018,07,29,03,47,11.90
2018,07,29,03,48,11.90
2018,07,29,03,49,11.90
2018,07,29,03,50,11.90
2018,07,29,03,51,11.90
2018,07,29,03,52,11.90
2018,07,29,03,53,11.90
2018,07,29,03,54,11.90
2018,07,29,03,55,11.90
2018,07,29,03,56,11.90
2018,07,29,03,57,11.80
2018,07,29,03,58,11.90
2018,07,29,03,59,11.90
2018,07,29,04,00,11.90
2018,07,29,04,01,11.90
2018,07,29,04,02,11.90
2018,07,29,04,03,11.90
2018,07,29,04,04,11.90
2018,07,29,04,05,11.80
2018,07,29,04,06,11.80
2018,07,29,04,07,11.80
2018,07,29,04,08,11.80
2018,07,29,04,09,11.80
2018,07,29,04,10,11.80
2018,07,29,04,11,11.80
2018,07,29,04,12,11.80
2018,07,29,04,13,11.80
2018,07,29,04,14,11.80
2018,07,29,04,15,11.80
2018,07,29,04,16,11.80
2018,07,29,04,17,11.80
2018,07,29,04,18,11.80
2018,07,29,04,19,11.80
2018,07,29,04,20,11.80
2018,07,29,04,21,11.70
2018,07,29,04,22,11.70
2018,07,29,04,23,11.70
2018,07,29,04,24,11.70
2018,07,29,04,25,11.70
2018,07,29,04,26,11.70
2018,07,29,04,27,11.70
2018,07,29,04,28,11.70
2018,07,29,04,29,11.70
2018,07,29,04,30,11.70
2018,07,29,04,31,11.70
2018,07,29,04,32,11.70
2018,07,29,04,33,11.70
2018,07,29,04,34,11.70
2018,07,29,04,35,11.70
2018,07,29,04,36,11.70
2018,07,29,04,37,11.70
2018,07,29,04,38,11.70
2018,07,29,04,39,11.70
2018,07,29,04,40,11.70
2018,07,29,04,41,11.70
2018,07,29,04,42,11.70
2018,07,29,04,43,11.70
2018,07,29,04,44,11.70
2018,07,29,04,45,11.70
2018,07,29,04,46,11.70
2018,07,29,04,47,11.70
2018,07,29,04,48,11.70
2018,07,29,04,49,11.70
2018,07,29,04,50,11.60
2018,07,29,04,51,11.60
2018,07,29,04,52,11.60
2018,07,29,04,53,11.60
2018,07,29,04,54,11.60
2018,07,29,04,55,11.60
2018,07,29,04,56,11.60
2018,07,29,04,57,11.60
2018,07,29,04,58,11.60
2018,07,29,04,59,11.60
2018,07,29,05,00,11.60
2018,07,29,05,01,11.60
2018,07,29,05,02,11.60
2018,07,29,05,03,11.60
2018,07,29,05,04,11.60
2018,07,29,05,05,11.60
2018,07,29,05,06,11.60
2018,07,29,05,07,11.60
2018,07,29,05,08,11.60
2018,07,29,05,09,11.60
2018,07,29,05,10,11.60
2018,07,29,05,11,11.50
2018,07,29,05,12,11.60
2018,07,29,05,13,11.50
2018,07,29,05,14,11.50
2018,07,29,05,15,11.50
2018,07,29,05,16,11.50
2018,07,29,05,17,11.50
2018,07,29,05,18,11.50
2018,07,29,05,19,11.40
2018,07,29,05,20,11.40
2018,07,29,05,21,11.50
2018,07,29,05,22,11.50
2018,07,29,05,23,11.50
2018,07,29,05,24,11.50
2018,07,29,05,25,11.50
2018,07,29,05,26,11.50
2018,07,29,05,27,11.50
2018,07,29,05,28,11.40
2018,07,29,05,29,11.40
2018,07,29,05,30,11.40
2018,07,29,05,31,11.40
2018,07,29,05,32,11.40
2018,07,29,05,33,11.40
2018,07,29,05,34,11.40
2018,07,29,05,35,11.40
2018,07,29,05,36,11.40
2018,07,29,05,37,11.40
2018,07,29,05,38,11.40
2018,07,29,05,39,11.40
2018,07,29,05,40,11.40
2018,07,29,05,41,11.40
2018,07,29,05,42,11.40
2018,07,29,05,43,11.40
2018,07,29,05,44,11.40
2018,07,29,05,45,11.40
2018,07,29,05,46,11.40
2018,07,29,05,47,11.40
2018,07,29,05,48,11.40
2018,07,29,05,49,11.40
2018,07,29,05,50,11.40
2018,07,29,05,51,11.40
2018,07,29,05,52,11.40
2018,07,29,05,53,11.40
2018,07,29,05,54,11.40
2018,07,29,05,55,11.40
2018,07,29,05,56,11.40
2018,07,29,05,57,11.40
2018,07,29,05,58,11.40
2018,07,29,05,59,11.40
2018,07,29,06,00,11.50
2018,07,29,06,01,11.50
2018,07,29,06,02,11.50
2018,07,29,06,03,11.50
2018,07,29,06,04,11.60
2018,07,29,06,05,11.60
2018,07,29,06,06,11.60
2018,07,29,06,07,11.60
2018,07,29,06,08,11.60
2018,07,29,06,09,11.60
2018,07,29,06,10,11.60
2018,07,29,06,11,11.60
2018,07,29,06,12,11.60
2018,07,29,06,13,11.70
2018,07,29,06,14,11.70
2018,07,29,06,15,11.70
2018,07,29,06,16,11.70
2018,07,29,06,17,11.70
2018,07,29,06,18,11.70
2018,07,29,06,19,11.70
2018,07,29,06,20,11.70
2018,07,29,06,21,11.80
2018,07,29,06,22,11.80
2018,07,29,06,23,11.80
2018,07,29,06,24,11.80
2018,07,29,06,25,11.80
2018,07,29,06,26,11.80
2018,07,29,06,27,11.80
2018,07,29,06,28,11.80
2018,07,29,06,29,11.80
2018,07,29,06,30,11.80
2018,07,29,06,31,11.80
2018,07,29,06,32,11.80
2018,07,29,06,33,11.90
2018,07,29,06,34,11.90
2018,07,29,06,35,11.90
2018,07,29,06,36,11.90
2018,07,29,06,37,11.90
2018,07,29,06,38,11.90
2018,07,29,06,39,11.90
2018,07,29,06,40,11.90
2018,07,29,06,41,11.90
2018,07,29,06,42,12.00
2018,07,29,06,43,12.00
2018,07,29,06,44,12.00
2018,07,29,06,45,12.00
2018,07,29,06,46,12.00
2018,07,29,06,47,12.10
2018,07,29,06,48,12.10
2018,07,29,06,49,12.10
2018,07,29,06,50,12.10
2018,07,29,06,51,12.10
2018,07,29,06,52,12.10
2018,07,29,06,53,12.20
2018,07,29,06,54,12.20
2018,07,29,06,55,12.20
2018,07,29,06,56,12.20
2018,07,29,06,57,12.30
2018,07,29,06,58,12.30
2018,07,29,06,59,12.30
2018,07,29,07,00,12.40
2018,07,29,07,01,12.40
2018,07,29,07,02,12.50
2018,07,29,07,03,12.60
2018,07,29,07,04,12.70
2018,07,29,07,05,12.80
2018,07,29,07,06,12.90
2018,07,29,07,07,13.00
2018,07,29,07,08,13.10
2018,07,29,07,09,13.20
2018,07,29,07,10,13.30
2018,07,29,07,11,13.30
2018,07,29,07,12,13.40
2018,07,29,07,13,13.50
2018,07,29,07,14,13.50
2018,07,29,07,15,13.60
2018,07,29,07,16,13.70
2018,07,29,07,17,13.80
2018,07,29,07,18,13.80
2018,07,29,07,19,13.90
2018,07,29,07,20,14.00
2018,07,29,07,21,14.00
2018,07,29,07,22,14.10
2018,07,29,07,23,14.20
2018,07,29,07,24,14.20
2018,07,29,07,25,14.30
2018,07,29,07,26,14.40
2018,07,29,07,27,14.50
2018,07,29,07,28,14.50
2018,07,29,07,29,14.60
2018,07,29,07,30,14.70
2018,07,29,07,31,14.80
2018,07,29,07,32,14.90
2018,07,29,07,33,15.00
2018,07,29,07,34,15.10
2018,07,29,07,35,15.20
2018,07,29,07,36,15.30
2018,07,29,07,37,15.40
2018,07,29,07,38,15.60
2018,07,29,07,39,15.70
2018,07,29,07,40,15.80
2018,07,29,07,41,15.90
2018,07,29,07,42,16.00
2018,07,29,07,43,16.10
2018,07,29,07,44,16.20
2018,07,29,07,45,16.20
2018,07,29,07,46,16.30
2018,07,29,07,47,16.30
2018,07,29,07,48,16.40
2018,07,29,07,49,16.50
2018,07,29,07,50,16.60
2018,07,29,07,51,16.60
2018,07,29,07,52,16.70
2018,07,29,07,53,16.80
2018,07,29,07,54,16.90
2018,07,29,07,55,17.00
2018,07,29,07,56,17.10
2018,07,29,07,57,17.20
2018,07,29,07,58,17.30
2018,07,29,07,59,17.40
2018,07,29,08,00,17.50
2018,07,29,08,01,17.70
2018,07,29,08,02,17.70
2018,07,29,08,03,17.80
2018,07,29,08,04,18.00
2018,07,29,08,05,18.10
2018,07,29,08,06,18.20
2018,07,29,08,07,18.30
2018,07,29,08,08,18.40
2018,07,29,08,09,18.50
2018,07,29,08,10,18.60
2018,07,29,08,11,18.70
2018,07,29,08,12,18.80
2018,07,29,08,13,18.90
2018,07,29,08,14,19.10
2018,07,29,08,15,19.20
2018,07,29,08,16,19.30
2018,07,29,08,17,19.40
2018,07,29,08,18,19.50
2018,07,29,08,19,19.60
2018,07,29,08,20,19.70
2018,07,29,08,21,19.90
2018,07,29,08,22,19.90
2018,07,29,08,23,20.10
2018,07,29,08,24,20.20
2018,07,29,08,25,20.20
2018,07,29,08,26,20.40
2018,07,29,08,27,20.50
2018,07,29,08,28,20.60
2018,07,29,08,29,20.70
2018,07,29,08,30,20.80
2018,07,29,08,31,20.90
2018,07,29,08,32,21.00
2018,07,29,08,33,21.10
2018,07,29,08,34,21.20
2018,07,29,08,35,21.30
2018,07,29,08,36,21.40
2018,07,29,08,37,21.50
2018,07,29,08,38,21.60
2018,07,29,08,39,21.70
2018,07,29,08,40,21.80
2018,07,29,08,41,21.90
2018,07,29,08,42,22.00
2018,07,29,08,43,22.10
2018,07,29,08,44,22.20
2018,07,29,08,45,22.30
2018,07,29,08,46,22.40
2018,07,29,08,47,22.50
2018,07,29,08,48,22.60
2018,07,29,08,49,22.70
2018,07,29,08,50,22.80
2018,07,29,08,51,22.90
2018,07,29,08,52,22.90
2018,07,29,08,53,23.00
2018,07,29,08,54,23.00
2018,07,29,08,55,23.10
2018,07,29,08,56,23.10
2018,07,29,08,57,23.20
2018,07,29,08,58,23.30
2018,07,29,08,59,23.30
2018,07,29,09,00,23.40
2018,07,29,09,01,23.50
2018,07,29,09,02,23.50
2018,07,29,09,03,23.60
2018,07,29,09,04,23.70
2018,07,29,09,05,23.70
2018,07,29,09,06,23.80
2018,07,29,09,07,23.80
2018,07,29,09,08,23.80
2018,07,29,09,09,23.90
2018,07,29,09,10,23.90
2018,07,29,09,11,23.90
2018,07,29,09,12,24.00
2018,07,29,09,13,24.00
2018,07,29,09,14,24.00
2018,07,29,09,15,24.00
2018,07,29,09,16,24.00
2018,07,29,09,17,24.10
2018,07,29,09,18,24.10
2018,07,29,09,19,24.10
2018,07,29,09,20,24.10
2018,07,29,09,21,24.10
2018,07,29,09,22,24.00
2018,07,29,09,23,24.00
2018,07,29,09,24,24.10
2018,07,29,09,25,24.10
2018,07,29,09,26,24.10
2018,07,29,09,27,24.10
2018,07,29,09,28,24.10
2018,07,29,09,29,24.10
2018,07,29,09,30,24.10
2018,07,29,09,31,24.10
2018,07,29,09,32,24.10
2018,07,29,09,33,24.10
2018,07,29,09,34,24.20
2018,07,29,09,35,24.20
2018,07,29,09,36,24.30
2018,07,29,09,37,24.30
2018,07,29,09,38,24.40
2018,07,29,09,39,24.50
2018,07,29,09,40,24.50
2018,07,29,09,41,24.60
2018,07,29,09,42,24.60
2018,07,29,09,43,24.60
2018,07,29,09,44,24.60
2018,07,29,09,45,24.70
2018,07,29,09,46,24.70
2018,07,29,09,47,24.80
2018,07,29,09,48,24.80
2018,07,29,09,49,24.90
2018,07,29,09,50,24.90
2018,07,29,09,51,24.90
2018,07,29,09,52,24.90
2018,07,29,09,53,24.90
2018,07,29,09,54,24.90
2018,07,29,09,55,24.90
2018,07,29,09,56,24.90
2018,07,29,09,57,24.90
2018,07,29,09,58,24.90
2018,07,29,09,59,25.00
2018,07,29,10,00,25.00
2018,07,29,10,01,25.00
2018,07,29,10,02,25.10
2018,07,29,10,03,25.10
2018,07,29,10,04,25.00
2018,07,29,10,05,25.00
2018,07,29,10,06,25.00
2018,07,29,10,07,25.00
2018,07,29,10,08,25.00
2018,07,29,10,09,25.00
2018,07,29,10,10,25.10
2018,07,29,10,11,25.10
2018,07,29,10,12,25.10
2018,07,29,10,13,25.10
2018,07,29,10,14,25.10
2018,07,29,10,15,25.20
2018,07,29,10,16,25.20
2018,07,29,10,17,25.20
2018,07,29,10,18,25.20
2018,07,29,10,19,25.30
2018,07,29,10,20,25.30
2018,07,29,10,21,25.30
2018,07,29,10,22,25.30
2018,07,29,10,23,25.20
2018,07,29,10,24,25.20
2018,07,29,10,25,25.10
2018,07,29,10,26,25.10
2018,07,29,10,27,25.10
2018,07,29,10,28,25.00
2018,07,29,10,29,25.00
2018,07,29,10,30,25.00
2018,07,29,10,31,25.00
2018,07,29,10,32,25.10
2018,07,29,10,33,25.10
2018,07,29,10,34,25.10
2018,07,29,10,35,25.10
2018,07,29,10,36,25.20
2018,07,29,10,37,25.10
2018,07,29,10,38,25.10
2018,07,29,10,39,25.10
2018,07,29,10,40,25.10
2018,07,29,10,41,25.20
2018,07,29,10,42,25.20
2018,07,29,10,43,25.20
2018,07,29,10,44,25.20
2018,07,29,10,45,25.30
2018,07,29,10,46,25.30
2018,07,29,10,47,25.30
2018,07,29,10,48,25.30
2018,07,29,10,49,25.40
2018,07,29,10,50,25.40
2018,07,29,10,51,25.50
2018,07,29,10,52,25.60
2018,07,29,10,53,25.60
2018,07,29,10,54,25.70
2018,07,29,10,55,25.70
2018,07,29,10,56,25.70
2018,07,29,10,57,25.70
2018,07,29,10,58,25.80
2018,07,29,10,59,25.80
2018,07,29,11,00,25.80
2018,07,29,11,01,25.80
2018,07,29,11,02,25.90
2018,07,29,11,03,25.90
2018,07,29,11,04,25.90
2018,07,29,11,05,26.00
2018,07,29,11,06,26.00
2018,07,29,11,07,26.10
2018,07,29,11,08,26.10
2018,07,29,11,09,26.10
2018,07,29,11,10,26.10
2018,07,29,11,11,26.10
2018,07,29,11,12,26.10
2018,07,29,11,13,26.20
2018,07,29,11,14,26.20
2018,07,29,11,15,26.20
2018,07,29,11,16,26.20
2018,07,29,11,17,26.20
2018,07,29,11,18,26.20
2018,07,29,11,19,26.20
2018,07,29,11,20,26.30
2018,07,29,11,21,26.30
2018,07,29,11,22,26.30
2018,07,29,11,23,26.30
2018,07,29,11,24,26.30
2018,07,29,11,25,26.40
2018,07,29,11,26,26.40
2018,07,29,11,27,26.50
2018,07,29,11,28,26.60
2018,07,29,11,29,26.60
2018,07,29,11,30,26.60
2018,07,29,11,31,26.60
2018,07,29,11,32,26.50
2018,07,29,11,33,26.50
2018,07,29,11,34,26.50
2018,07,29,11,35,26.40
2018,07,29,11,36,26.40
2018,07,29,11,37,26.30
2018,07,29,11,38,26.30
2018,07,29,11,39,26.30
2018,07,29,11,40,26.20
2018,07,29,11,41,26.30
2018,07,29,11,42,26.30
2018,07,29,11,43,26.30
2018,07,29,11,44,26.40
2018,07,29,11,45,26.50
2018,07,29,11,46,26.50
2018,07,29,11,47,26.60
2018,07,29,11,48,26.60
2018,07,29,11,49,26.60
2018,07,29,11,50,26.60
2018,07,29,11,51,26.60
2018,07,29,11,52,26.70
2018,07,29,11,53,26.70
2018,07,29,11,54,26.80
2018,07,29,11,55,26.80
2018,07,29,11,56,26.90
2018,07,29,11,57,27.00
2018,07,29,11,58,27.00
2018,07,29,11,59,27.10
2018,07,29,12,00,27.20
2018,07,29,12,01,27.20
2018,07,29,12,02,27.30
2018,07,29,12,03,27.30
2018,07,29,12,04,27.40
2018,07,29,12,05,27.40
2018,07,29,12,06,27.50
2018,07,29,12,07,27.50
2018,07,29,12,08,27.50
2018,07,29,12,09,27.50
2018,07,29,12,10,27.50
2018,07,29,12,11,27.50
2018,07,29,12,12,27.60
2018,07,29,12,13,27.60
2018,07,29,12,14,27.70
2018,07,29,12,15,27.70
2018,07,29,12,16,27.70
2018,07,29,12,17,27.70
2018,07,29,12,18,27.60
2018,07,29,12,19,27.50
2018,07,29,12,20,27.50
2018,07,29,12,21,27.40
2018,07,29,12,22,27.30
2018,07,29,12,23,27.20
2018,07,29,12,24,27.10
2018,07,29,12,25,27.10
2018,07,29,12,26,27.00
2018,07,29,12,27,27.00
2018,07,29,12,28,26.90
2018,07,29,12,29,26.90
2018,07,29,12,30,26.90
2018,07,29,12,31,26.90
2018,07,29,12,32,26.80
2018,07,29,12,33,26.80
2018,07,29,12,34,26.80
2018,07,29,12,35,26.80
2018,07,29,12,36,26.70
2018,07,29,12,37,26.70
2018,07,29,12,38,26.60
2018,07,29,12,39,26.60
2018,07,29,12,40,26.60
2018,07,29,12,41,26.60
2018,07,29,12,42,26.70
2018,07,29,12,43,26.70
2018,07,29,12,44,26.80
2018,07,29,12,45,26.80
2018,07,29,12,46,26.90
2018,07,29,12,47,27.00
2018,07,29,12,48,27.10
2018,07,29,12,49,27.20
2018,07,29,12,50,27.20
2018,07,29,12,51,27.20
2018,07,29,12,52,27.20
2018,07,29,12,53,27.20
2018,07,29,12,54,27.30
2018,07,29,12,55,27.30
2018,07,29,12,56,27.30
2018,07,29,12,57,27.30
2018,07,29,12,58,27.30
2018,07,29,12,59,27.30
2018,07,29,13,00,27.30
2018,07,29,13,01,27.40
2018,07,29,13,02,27.30
2018,07,29,13,03,27.30
2018,07,29,13,04,27.30
2018,07,29,13,05,27.30
2018,07,29,13,06,27.30
2018,07,29,13,07,27.30
2018,07,29,13,08,27.30
2018,07,29,13,09,27.40
2018,07,29,13,10,27.40
2018,07,29,13,11,27.40
2018,07,29,13,12,27.50
2018,07,29,13,13,27.60
2018,07,29,13,14,27.60
2018,07,29,13,15,27.70
2018,07,29,13,16,27.80
2018,07,29,13,17,27.90
2018,07,29,13,18,28.00
2018,07,29,13,19,28.10
2018,07,29,13,20,28.10
2018,07,29,13,21,28.10
2018,07,29,13,22,28.10
2018,07,29,13,23,28.10
2018,07,29,13,24,28.10
2018,07,29,13,25,28.10
2018,07,29,13,26,28.10
2018,07,29,13,27,28.10
2018,07,29,13,28,28.10
2018,07,29,13,29,28.20
2018,07,29,13,30,28.20
2018,07,29,13,31,28.20
2018,07,29,13,32,28.20
2018,07,29,13,33,28.20
2018,07,29,13,34,28.20
2018,07,29,13,35,28.30
2018,07,29,13,36,28.30
2018,07,29,13,37,28.30
2018,07,29,13,38,28.30
2018,07,29,13,39,28.20
2018,07,29,13,40,28.20
2018,07,29,13,41,28.10
2018,07,29,13,42,28.00
2018,07,29,13,43,28.00
2018,07,29,13,44,27.90
2018,07,29,13,45,27.90
2018,07,29,13,46,27.90
2018,07,29,13,47,27.90
2018,07,29,13,48,27.90
2018,07,29,13,49,27.80
2018,07,29,13,50,27.80
2018,07,29,13,51,27.80
2018,07,29,13,52,27.80
2018,07,29,13,53,27.90
2018,07,29,13,54,27.90
2018,07,29,13,55,27.90
2018,07,29,13,56,27.90
2018,07,29,13,57,28.00
2018,07,29,13,58,28.00
2018,07,29,13,59,28.00
2018,07,29,14,00,28.10
2018,07,29,14,01,28.10
2018,07,29,14,02,28.10
2018,07,29,14,03,28.20
2018,07,29,14,04,28.20
2018,07,29,14,05,28.20
2018,07,29,14,06,28.30
2018,07,29,14,07,28.30
2018,07,29,14,08,28.30
2018,07,29,14,09,28.40
2018,07,29,14,10,28.40
2018,07,29,14,11,28.40
2018,07,29,14,12,28.40
2018,07,29,14,13,28.50
2018,07,29,14,14,28.50
2018,07,29,14,15,28.60
2018,07,29,14,16,28.50
2018,07,29,14,17,28.50
2018,07,29,14,18,28.40
2018,07,29,14,19,28.30
2018,07,29,14,20,28.30
2018,07,29,14,21,28.20
2018,07,29,14,22,28.20
2018,07,29,14,23,28.20
2018,07,29,14,24,28.20
2018,07,29,14,25,28.20
2018,07,29,14,26,28.20
2018,07,29,14,27,28.30
2018,07,29,14,28,28.30
2018,07,29,14,29,28.40
2018,07,29,14,30,28.50
2018,07,29,14,31,28.50
2018,07,29,14,32,28.60
2018,07,29,14,33,28.60
2018,07,29,14,34,28.60
2018,07,29,14,35,28.70
2018,07,29,14,36,28.70
2018,07,29,14,37,28.70
2018,07,29,14,38,28.70
2018,07,29,14,39,28.70
2018,07,29,14,40,28.80
2018,07,29,14,41,28.80
2018,07,29,14,42,28.80
2018,07,29,14,43,28.90
2018,07,29,14,44,28.90
2018,07,29,14,45,28.90
2018,07,29,14,46,29.00
2018,07,29,14,47,29.10
2018,07,29,14,48,29.10
2018,07,29,14,49,29.20
2018,07,29,14,50,29.30
2018,07,29,14,51,29.40
2018,07,29,14,52,29.50
2018,07,29,14,53,29.70
2018,07,29,14,54,29.80
2018,07,29,14,55,29.80
2018,07,29,14,56,29.90
2018,07,29,14,57,29.90
2018,07,29,14,58,30.00
2018,07,29,14,59,30.10
2018,07,29,15,00,30.10
2018,07,29,15,01,30.20
2018,07,29,15,02,30.20
2018,07,29,15,03,30.20
2018,07,29,15,04,30.20
2018,07,29,15,05,30.20
2018,07,29,15,06,30.20
2018,07,29,15,07,30.20
2018,07,29,15,08,30.30
2018,07,29,15,09,30.30
2018,07,29,15,10,30.30
2018,07,29,15,11,30.30
2018,07,29,15,12,30.30
2018,07,29,15,13,30.20
2018,07,29,15,14,30.20
2018,07,29,15,15,30.20
2018,07,29,15,16,30.20
2018,07,29,15,17,30.30
2018,07,29,15,18,30.30
2018,07,29,15,19,30.30
2018,07,29,15,20,30.30
2018,07,29,15,21,30.30
2018,07,29,15,22,30.40
2018,07,29,15,23,30.40
2018,07,29,15,24,30.50
2018,07,29,15,25,30.50
2018,07,29,15,26,30.50
2018,07,29,15,27,30.40
2018,07,29,15,28,30.40
2018,07,29,15,29,30.40
2018,07,29,15,30,30.30
2018,07,29,15,31,30.30
2018,07,29,15,32,30.30
2018,07,29,15,33,30.40
2018,07,29,15,34,30.40
2018,07,29,15,35,30.50
2018,07,29,15,36,30.50
2018,07,29,15,37,30.60
2018,07,29,15,38,30.70
2018,07,29,15,39,30.70
2018,07,29,15,40,30.80
2018,07,29,15,41,30.80
2018,07,29,15,42,30.90
2018,07,29,15,43,30.90
2018,07,29,15,44,31.00
2018,07,29,15,45,31.00
2018,07,29,15,46,31.10
2018,07,29,15,47,31.20
2018,07,29,15,48,31.20
2018,07,29,15,49,31.20
2018,07,29,15,50,31.10
2018,07,29,15,51,31.10
2018,07,29,15,52,31.10
2018,07,29,15,53,31.10
2018,07,29,15,54,31.10
2018,07,29,15,55,31.10
2018,07,29,15,56,31.10
2018,07,29,15,57,31.20
2018,07,29,15,58,31.20
2018,07,29,15,59,31.20
2018,07,29,16,00,31.30
2018,07,29,16,01,31.30
2018,07,29,16,02,31.30
2018,07,29,16,03,31.40
2018,07,29,16,04,31.40
2018,07,29,16,05,31.40
2018,07,29,16,06,31.40
2018,07,29,16,07,31.40
2018,07,29,16,08,31.40
2018,07,29,16,09,31.40
2018,07,29,16,10,31.40
2018,07,29,16,11,31.40
2018,07,29,16,12,31.40
2018,07,29,16,13,31.40
2018,07,29,16,14,31.40
2018,07,29,16,15,31.40
2018,07,29,16,16,31.40
2018,07,29,16,17,31.30
2018,07,29,16,18,31.30
2018,07,29,16,19,31.20
2018,07,29,16,20,31.10
2018,07,29,16,21,31.00
2018,07,29,16,22,30.90
2018,07,29,16,23,30.80
2018,07,29,16,24,30.80
2018,07,29,16,25,30.70
2018,07,29,16,26,30.60
2018,07,29,16,27,30.60
2018,07,29,16,28,30.60
2018,07,29,16,29,30.60
2018,07,29,16,30,30.60
2018,07,29,16,31,30.60
2018,07,29,16,32,30.60
2018,07,29,16,33,30.60
2018,07,29,16,34,30.60
2018,07,29,16,35,30.70
2018,07,29,16,36,30.70
2018,07,29,16,37,30.80
2018,07,29,16,38,30.80
2018,07,29,16,39,30.70
2018,07,29,16,40,30.70
2018,07,29,16,41,30.70
2018,07,29,16,42,30.70
2018,07,29,16,43,30.70
2018,07,29,16,44,30.60
2018,07,29,16,45,30.60
2018,07,29,16,46,30.60
2018,07,29,16,47,30.60
2018,07,29,16,48,30.60
2018,07,29,16,49,30.50
2018,07,29,16,50,30.50
2018,07,29,16,51,30.50
2018,07,29,16,52,30.50
2018,07,29,16,53,30.40
2018,07,29,16,54,30.40
2018,07,29,16,55,30.40
2018,07,29,16,56,30.40
2018,07,29,16,57,30.40
2018,07,29,16,58,30.40
2018,07,29,16,59,30.40
2018,07,29,17,00,30.50
2018,07,29,17,01,30.50
2018,07,29,17,02,30.60
2018,07,29,17,03,30.70
2018,07,29,17,04,30.70
2018,07,29,17,05,30.80
2018,07,29,17,06,30.80
2018,07,29,17,07,30.80
2018,07,29,17,08,30.80
2018,07,29,17,09,30.80
2018,07,29,17,10,30.90
2018,07,29,17,11,30.90
2018,07,29,17,12,30.90
2018,07,29,17,13,30.90
2018,07,29,17,14,30.90
2018,07,29,17,15,30.90
2018,07,29,17,16,30.90
2018,07,29,17,17,30.90
2018,07,29,17,18,30.80
2018,07,29,17,19,30.80